Location: Unspecified
(0.0000°N, 0.0000°E)
Time: 14:11:03
(UTC+00:00)

Vanguard 3 - Pass Details

Date: 14 December 2025
Orbit: 507 x 3207 km, 33.3° (Epoch: 22 January)

Event Time Altitude Azimuth Distance (km) Brightness Sun altitude
Rises 03:56:15 0° 217° (SW) 5,952 11.5 -27.0°
Reaches altitude 10° 04:01:47 10° 201° (SSW) 5,378 11.4 -25.7°
Maximum altitude 04:13:08 20° 159° (SSE) 5,115 11.7 -23.2°
Drops below altitude 10° 04:25:51 10° 118° (ESE) 6,117 12.8 -20.3°
Sets 04:32:45 0° 103° (ESE) 6,995 13.5 -18.7°
